Wind_Speed
34 30 24 19 16 9 4 3 7 19 28 31 28 24 28 27 19 21 17 14 16 18 16 17 20 22 25 30 32 31 31 32 29 27 29 28 34 36 35 33 27 22 22
31 30 25 20 13 5 5 6 8 15 25 22 26 26 24 20 21 19 20 19 19 21 22 22 23 21 25 22 25 26 18 16 17 23 26 29 31 34 29 24 20 21 25
34 26 26 26 25 21 12 6 10 13 13 18 23 18 17 19 19 17 22 22 25 25 24 22 25 27 27 23 19 16 18 19 21 25 30 32 32 30 23 19 18 19 15
36 34 22 25 23 24 21 21 9 5 7 12 16 19 17 16 18 20 22 23 26 22 21 21 26 6 9 11 14 17 16 18 21 24 28 30 29 23 13 13 15 13 7
29 33 37 22 21 24 22 21 21 21 19 14 12 13 18 17 19 15 17 21 24 17 3 5 6 8 11 12 12 12 15 18 19 19 18 15 10 7 8 8 6 3 7
28 29 29 31 33 18 19 22 22 21 19 19 19 17 17 16 15 12 8 7 5 3 3 5 6 6 8 9 9 12 11 12 15 17 13 10 6 6 4 3 3 6 8
22 25 27 26 26 28 31 22 15 15 15 16 16 15 13 10 8 5 3 1 0 2 3 5 6 8 8 8 7 7 9 11 14 15 13 9 5 5 5 3 4 5 5
15 18 20 22 24 22 22 23 24 26 25 21 16 12 10 9 9 9 8 7 7 6 7 8 8 7 7 8 8 9 10 11 11 12 12 9 6 4 3 4 5 4 6
9 11 13 15 16 18 19 18 17 16 17 17 16 16 15 13 13 12 9 7 8 9 9 8 7 8 8 8 10 11 12 13 13 11 10 9 7 4 4 5 5 8 9
9 8 7 7 9 10 11 12 12 13 13 12 11 9 8 8 9 9 9 7 6 6 7 9 10 11 11 12 13 14 14 14 14 14 13 11 8 7 8 9 11 13 14
14 12 9 7 7 8 7 6 7 8 8 8 8 9 10 9 7 7 8 8 10 10 11 13 15 16 16 16 17 16 16 16 16 15 14 15 13 12 12 14 16 18 20
19 18 17 15 12 10 10 9 10 9 7 7 9 10 10 10 11 11 12 14 15 17 17 18 19 18 21 21 20 21 19 18 19 20 19 18 17 17 19 20 21 23 24
21 21 21 21 22 20 17 16 16 14 14 13 13 13 13 15 16 17 19 19 20 20 22 22 23 24 23 22 22 22 22 22 22 21 22 24 24 25 25 26 26 27 28
25 24 24 24 24 25 26 24 22 21 21 21 21 20 19 20 20 20 21 22 24 25 26 26 27 27 28 28 26 24 24 24 24 24 26 27 28 30 29 29 30 30 30
29 29 27 28 28 28 27 29 29 29 28 27 27 27 27 27 28 29 30 29 29 29 29 31 32 32 31 31 32 32 29 28 28 26 25 28 31 33 33 33 34 35 35
32 33 32 33 32 32 31 31 31 31 33 33 33 33 32 32 33 34 35 35 35 34 36 38 37 37 38 38 37 36 35 35 35 32 30 30 31 33 35 36 38 39 40
36 36 36 36 38 37 37 37 38 36 36 37 38 38 39 40 39 38 38 39 39 40 41 43 43 44 44 43 44 44 42 40 39 40 39 38 37 38 38 39 41 42 44
33 34 35 36 37 37 38 39 41 45 45 44 43 44 44 44 44 45 45 44 44 45 46 47 49 51 50 50 49 48 47 47 45 44 45 46 43 41 43 43 43 44 44
36 37 37 37 37 35 34 36 37 38 41 47 49 48 47 48 48 50 50 51 51 51 52 53 56 57 56 54 53 53 52 51 50 49 47 48 49 48 48 48 46 45 46
41 39 37 38 37 37 36 36 37 39 43 45 46 47 48 50 52 53 55 56 53 52 53 56 59 61 62 63 62 59 56 55 56 55 54 50 53 55 54 52 52 50 51
44 43 42 42 42 43 44 43 42 43 44 45 46 47 48 51 53 53 54 54 52 52 55 56 55 55 58 62 63 60 61 64 66 67 64 59 63 60 60 61 61 63 61
44 46 46 45 45 44 45 46 47 47 48 48 49 50 50 51 53 54 55 55 55 55 55 55 56 60 62 60 59 58 58 58 60 64 65 65 64 67 67 66 66 67 66
46 47 48 50 51 50 50 51 52 53 53 54 55 56 56 56 55 55 55 54 53 53 55 56 57 57 56 56 56 57 58 59 60 61 62 63 65 67 69 69 69 67 66
53 53 53 52 52 53 54 55 56 55 54 53 53 53 52 51 52 51 51 53 52 52 53 54 55 57 58 55 55 56 57 58 57 54 53 55 55 62 65 66 67 63 61
58 57 53 51 50 49 48 48 48 47 48 49 49 50 50 51 51 51 53 55 56 56 56 56 56 56 58 59 59 59 60 61 59 56 54 54 55 57 56 54 55 60 60
49 47 46 47 49 50 50 49 49 49 49 49 50 51 53 54 55 56 56 58 59 60 61 62 64 62 62 63 65 65 66 64 62 60 60 59 59 59 58 58 60 59 63
Wind_Direction
41 53 50 64 65 82 125 70 115 134 175 177 169 171 182 188 199 219 228 218 223 219 230 238 257 257 267 274 279 282 290 294 295 294 284 287 303 309 303 301 299 306 288
40 44 49 61 71 71 87 109 146 162 156 178 182 188 194 205 208 225 230 227 220 230 246 265 264 257 266 288 284 289 284 303 319 314 302 295 295 296 299 297 287 279 300
43 44 47 46 45 66 74 133 182 199 204 208 201 194 209 204 214 221 230 229 230 248 252 272 267 268 277 268 295 337 323 308 309 306 305 301 295 293 293 294 282 289 317
38 48 51 49 50 53 64 83 134 169 161 170 189 203 211 233 210 221 221 237 246 249 247 252 250 314 326 331 303 297 308 317 315 313 309 303 295 290 281 290 319 315 327
48 47 48 59 56 58 60 61 77 88 99 113 133 175 193 195 207 201 211 219 228 248 276 13 347 302 285 291 301 312 316 317 317 323 326 331 338 332 306 322 347 311 331
40 51 56 49 55 66 65 67 68 72 84 96 107 111 110 117 122 125 124 139 157 176 245 262 273 283 292 301 309 311 323 331 345 346 358 26 57 62 40 0 317 334 317
29 34 46 55 58 55 62 71 74 72 73 80 89 93 97 99 104 111 108 107 232 256 276 297 312 319 315 321 326 346 353 359 359 355 355 4 41 13 344 336 323 308 299
28 28 32 41 51 54 60 63 64 65 68 70 73 79 85 87 84 86 87 80 71 59 45 35 36 29 19 7 359 1 2 4 1 356 354 354 8 8 353 325 311 308 302
15 26 28 29 38 43 46 53 61 64 68 69 69 69 69 68 66 62 59 54 41 35 29 20 19 13 1 349 347 346 345 343 344 345 345 335 335 329 305 293 293 293 297
324 338 357 21 25 24 30 33 36 41 42 45 49 58 57 51 48 40 34 30 14 6 353 347 341 340 337 341 342 335 329 323 322 321 320 317 309 290 274 271 278 282 287
293 295 301 313 325 329 341 351 358 3 357 5 353 356 11 7 5 0 354 345 336 334 332 336 334 332 328 325 325 324 318 317 313 308 308 307 308 301 288 281 283 285 286
287 288 284 282 280 281 289 296 298 293 295 301 299 303 306 301 305 306 311 311 314 315 317 317 311 313 311 312 310 311 304 303 302 302 301 297 295 292 290 287 286 285 286
278 279 282 283 281 279 274 272 272 273 280 283 281 280 279 284 289 290 292 296 299 301 298 298 299 300 299 298 300 301 301 295 292 294 291 291 288 285 284 285 285 284 286
272 272 272 274 277 277 277 274 274 272 272 272 273 274 275 277 277 276 279 284 286 288 289 290 291 293 294 294 293 293 294 295 292 291 288 287 286 286 284 283 282 283 284
261 265 267 270 274 276 276 273 273 273 273 274 273 273 274 275 279 280 280 280 281 284 286 288 289 290 290 291 293 292 290 289 290 289 290 286 285 285 286 285 285 286 286
259 260 262 265 268 271 273 274 274 274 274 275 275 277 278 277 279 280 280 282 283 284 284 283 282 282 283 284 286 285 288 288 287 286 283 283 281 280 281 282 283 284 287
263 261 262 266 266 266 265 266 267 269 271 271 273 276 278 282 283 283 284 285 286 286 284 285 285 285 285 285 284 287 287 285 286 284 281 280 280 280 280 280 280 281 283
271 270 271 274 276 272 268 269 272 268 269 268 268 271 273 275 277 280 281 282 282 283 285 284 284 285 286 286 285 284 284 287 286 285 283 279 276 278 279 277 278 280 281
274 268 270 276 275 273 275 272 274 276 278 278 277 273 270 273 275 277 279 282 283 282 279 279 278 278 279 283 284 285 283 283 283 282 281 279 277 279 280 280 277 276 278
274 275 274 273 272 272 273 274 276 279 278 277 277 278 277 275 275 277 279 282 282 282 282 284 283 283 285 284 279 275 280 280 280 280 280 277 279 276 277 276 276 276 276
271 271 271 271 272 273 272 270 270 271 273 276 276 276 275 277 279 281 282 282 281 281 282 281 280 281 283 285 287 287 285 279 279 279 277 276 279 276 275 277 275 277 280
262 266 268 270 271 272 273 274 276 278 280 282 281 280 280 281 284 285 285 286 285 285 285 286 284 283 279 279 281 283 284 284 285 284 285 281 275 276 275 276 277 279 281
263 264 265 268 271 273 275 276 277 278 279 280 282 283 284 284 284 284 284 284 284 283 282 282 282 284 285 284 284 285 285 285 285 287 287 287 286 286 282 280 278 285 285
269 269 269 269 271 271 272 274 274 276 278 279 280 281 282 282 283 285 287 287 287 286 285 284 284 284 283 281 279 279 279 278 279 281 284 286 290 291 288 287 288 290 286
268 268 270 270 271 272 273 273 274 276 277 278 279 280 282 283 285 285 286 286 286 287 288 288 287 286 285 283 281 280 280 281 280 280 281 281 282 284 285 285 288 287 286
268 267 265 264 266 268 269 271 272 275 277 279 281 284 286 286 286 286 287 287 287 287 287 286 284 283 284 284 284 284 282 281 279 277 276 278 280 282 282 281 281 281 282
Height
5658 5653 5649 5646 5645 5647 5649 5650 5652 5657 5660 5666 5673 5678 5684 5690 5695 5701 5704 5706 5710 5713 5715 5717 5718 5719 5718 5718 5718 5716 5714 5711 5708 5706 5703 5701 5696 5693 5691 5688 5686 5683 5681
5668 5662 5660 5656 5653 5651 5650 5651 5656 5660 5667 5670 5676 5680 5685 5689 5694 5697 5701 5704 5708 5711 5712 5713 5714 5714 5714 5713 5711 5709 5707 5706 5704 5700 5698 5695 5691 5687 5685 5683 5682 5681 5679
5675 5671 5667 5663 5662 5658 5655 5656 5660 5663 5667 5671 5675 5680 5685 5687 5692 5694 5698 5703 5705 5708 5708 5709 5709 5709 5709 5708 5706 5705 5703 5702 5699 5697 5692 5688 5684 5681 5679 5678 5678 5677 5676
5683 5678 5675 5672 5669 5667 5665 5663 5663 5663 5664 5668 5675 5680 5683 5685 5688 5692 5696 5699 5702 5703 5704 5705 5705 5705 5705 5705 5704 5703 5700 5698 5695 5691 5686 5681 5676 5674 5675 5675 5676 5675 5675
5691 5687 5681 5678 5677 5675 5672 5672 5671 5670 5669 5670 5673 5678 5680 5682 5687 5691 5695 5698 5699 5700 5701 5702 5702 5703 5703 5702 5701 5699 5697 5695 5692 5687 5682 5677 5673 5672 5673 5674 5675 5675 5675
5697 5694 5690 5687 5683 5681 5680 5679 5678 5678 5678 5678 5680 5681 5683 5686 5689 5691 5694 5697 5699 5698 5700 5701 5700 5700 5700 5699 5698 5697 5695 5692 5689 5686 5682 5677 5674 5673 5672 5673 5673 5674 5675
5703 5699 5696 5693 5692 5689 5686 5685 5685 5685 5685 5685 5685 5687 5688 5689 5691 5694 5694 5695 5697 5698 5698 5698 5698 5698 5697 5696 5696 5694 5692 5690 5687 5685 5681 5678 5675 5674 5674 5674 5673 5674 5674
5705 5703 5701 5698 5696 5695 5694 5692 5690 5689 5689 5689 5690 5691 5692 5693 5693 5694 5696 5697 5698 5698 5697 5697 5696 5696 5696 5696 5695 5693 5691 5689 5687 5684 5681 5679 5677 5675 5674 5674 5674 5673 5673
5706 5705 5704 5702 5701 5699 5698 5697 5696 5696 5695 5695 5695 5695 5696 5696 5697 5696 5697 5697 5697 5697 5696 5697 5697 5696 5696 5695 5693 5691 5690 5688 5686 5683 5680 5679 5677 5675 5674 5674 5673 5672 5672
5706 5705 5704 5703 5702 5702 5701 5700 5699 5699 5699 5698 5698 5698 5698 5699 5698 5697 5697 5698 5698 5698 5697 5696 5696 5695 5694 5692 5690 5689 5687 5685 5683 5681 5680 5677 5675 5673 5672 5672 5670 5669 5668
5704 5704 5703 5703 5702 5702 5702 5701 5701 5700 5700 5699 5699 5699 5698 5698 5698 5698 5697 5697 5697 5696 5695 5693 5693 5692 5691 5690 5687 5685 5684 5682 5679 5678 5676 5675 5672 5671 5670 5668 5666 5665 5664
5701 5701 5701 5701 5701 5700 5700 5699 5699 5699 5699 5699 5699 5699 5698 5697 5697 5696 5696 5695 5694 5693 5692 5691 5689 5687 5686 5685 5683 5681 5680 5677 5676 5675 5672 5670 5668 5667 5666 5664 5662 5660 5658
5697 5697 5697 5697 5697 5697 5697 5697 5696 5696 5695 5695 5694 5694 5694 5694 5693 5692 5692 5691 5690 5689 5688 5686 5684 5682 5680 5679 5677 5675 5674 5672 5671 5669 5667 5666 5664 5662 5660 5658 5656 5653 5652
5692 5692 5692 5692 5692 5693 5692 5692 5691 5691 5691 5690 5690 5689 5689 5688 5687 5687 5686 5685 5684 5683 5681 5680 5678 5676 5675 5673 5670 5668 5667 5666 5664 5663 5661 5658 5656 5655 5653 5651 5649 5646 5644
5685 5685 5686 5686 5685 5686 5686 5686 5686 5686 5685 5684 5683 5683 5683 5683 5681 5680 5679 5678 5677 5676 5674 5673 5671 5669 5667 5666 5664 5662 5660 5658 5656 5655 5653 5651 5649 5647 5645 5643 5641 5638 5636
5677 5678 5678 5678 5677 5678 5679 5679 5678 5678 5677 5676 5675 5675 5674 5673 5673 5672 5671 5670 5669 5668 5666 5663 5661 5660 5658 5656 5654 5653 5651 5649 5647 5646 5644 5642 5639 5637 5635 5633 5631 5628 5627
5668 5669 5670 5669 5669 5669 5669 5669 5669 5670 5669 5668 5668 5667 5665 5664 5663 5663 5661 5660 5659 5658 5656 5653 5652 5650 5648 5647 5645 5643 5641 5639 5638 5636 5633 5630 5628 5626 5624 5621 5619 5617 5615
5659 5659 5660 5660 5659 5658 5659 5659 5659 5658 5659 5658 5658 5657 5655 5654 5654 5652 5651 5650 5648 5646 5644 5641 5640 5638 5636 5634 5632 5631 5629 5627 5626 5624 5622 5619 5616 5614 5612 5609 5606 5604 5601
5648 5648 5649 5649 5648 5648 5647 5647 5647 5647 5646 5644 5644 5644 5643 5642 5641 5639 5638 5637 5635 5633 5631 5628 5625 5623 5622 5620 5618 5617 5615 5613 5611 5610 5608 5605 5603 5601 5599 5596 5593 5590 5587
5636 5636 5637 5637 5636 5636 5635 5635 5635 5635 5633 5631 5629 5628 5628 5628 5626 5624 5623 5621 5619 5617 5614 5612 5610 5608 5606 5604 5602 5601 5600 5598 5596 5594 5592 5589 5587 5585 5583 5580 5578 5575 5572
5623 5624 5624 5624 5624 5623 5623 5622 5621 5620 5619 5618 5616 5615 5615 5613 5611 5609 5608 5606 5603 5601 5599 5595 5593 5591 5588 5586 5584 5583 5581 5579 5577 5576 5574 5572 5569 5567 5565 5563 5560 5558 5556
5610 5610 5610 5610 5610 5609 5608 5608 5607 5606 5605 5604 5602 5601 5600 5599 5597 5594 5592 5590 5588 5585 5582 5580 5578 5574 5571 5568 5566 5564 5562 5560 5558 5555 5554 5553 5551 5548 5546 5544 5541 5539 5538
5598 5597 5597 5597 5597 5596 5595 5594 5593 5592 5590 5589 5587 5586 5584 5582 5580 5577 5575 5573 5571 5568 5565 5563 5561 5558 5555 5552 5549 5546 5544 5541 5539 5537 5536 5534 5532 5530 5527 5526 5523 5521 5520
5585 5584 5583 5583 5582 5581 5580 5578 5577 5575 5574 5573 5571 5569 5567 5565 5563 5560 5559 5557 5554 5552 5549 5546 5543 5541 5538 5534 5531 5529 5525 5522 5520 5517 5515 5514 5512 5510 5509 5507 5504 5501 5502
5569 5569 5568 5567 5566 5565 5564 5563 5561 5559 5558 5557 5555 5553 5551 5549 5547 5543 5541 5539 5536 5533 5531 5529 5525 5522 5520 5517 5513 5510 5507 5503 5500 5497 5495 5493 5492 5490 5488 5486 5485 5484 5482
5552 5552 5552 5552 5551 5550 5548 5547 5546 5544 5542 5540 5538 5536 5535 5533 5531 5528 5524 5522 5519 5517 5513 5510 5507 5503 5500 5497 5494 5490 5487 5483 5480 5477 5474 5472 5470 5469 5467 5466 5465 5463 5462